OneWeb SL0261

operational
NORAD ID: 48979 Int'l Des: 2021-060 Owner: ONEWEBN Country: UK Constellation: oneweb
LEOCIRCULARPOLARONEWEB_TYPE

关于 OneWeb SL0261

正在加载描述...

实时位置

正在加载3D地球...

即将过境

高度历史

Altitude vs Time

uPlot chart will show altitude changes over time

两行轨道根数

1 48979U 21060N 25258.55821417 -.00000032 00000-0 -11618-3 0 9998
2 48979 87.8971 283.5382 0001472 86.6825 273.4474 13.16593836203527
Epoch: Sep 15, 2025 • Age: 19 hours

当前状态

高度 1200.7 km
速度 7.26 km/s
星下点 27.70°N, 19.37°W
发射日期 Jul 1, 2021
运行时间 4.2 years
类型 internet

技术详情

分类 Payload
质量 148.00 kg
干质量 140.00 kg
总质量 148.00 kg
长度 1.30 m
直径 1.00 m
跨度 5.00 m
形状 Trapezoid+2 pan
制造商 ONEWUS
平台类型 ARROW
阶段状态 In Orbit
所有者/国家 ONEWEBN/UK

大型星座

Loading constellations...